Location: *
(43.7000°S, 168.7000°W)
Time: 15:06:56
(UTC+00:00)

Cosmos 1766 - Pass Details

Date: 07 July 2020
Orbit: 520 x 545 km, 82.5° (Epoch: 04 August)

Event Time Altitude Azimuth Distance (km) Brightness Sun altitude
Exits shadow 16:34:43 32° 352° (N) 954 4.5 -23.3°
Drops below altitude 10° 16:36:56 10° 360° (N) 1,810 6.0 -22.9°
Sets 16:39:05 0° 1° (N) 2,696 7.0 -22.5°
